Regional Weather Roundup
Issued by NWS

Home | Current Version | Previous Version | Text Only | Print | Product List | Glossary Off
Versions: 1 2 3 4 5 6 7 8 9 10 11 12 13 14 15 16 17 18 19 20 21 22 23 24 25 26 27 28 29 30 31 32 33 34 35 36 37 38 39 40 41 42 43 44 45 46 47 48 49 50

000
ASUS43 KOAX 271602
RWRNE

WEATHER ROUNDUP FOR NEBRASKA
NATIONAL WEATHER SERVICE OMAHA NE
1100 AM CDT MON APR 27 2015

NOTES: SATELLITE DATA IS BEING USED TO AUGMENT CLOUD COVER ABOVE
       12000 FEET.
       "FAIR" INDICATES FEW OR NO CLOUDS BELOW 12,000 FEET WITH NO
       SIGNIFICANT WEATHER AND/OR OBSTRUCTIONS TO VISIBILITY.

  * THESE STATIONS DO NOT REPORT WEATHER SUCH AS RAIN...SNOW OR FOG.

NEZ001>004-019>022-054>056-271700-
NEBRASKA PANHANDLE

CITY           SKY/WX    TMP DP  RH WIND       PRES   REMARKS
SCOTTSBLUFF    CLOUDY    48  42  80 W5        30.28R
ALLIANCE       PTSUNNY   52  40  63 NE5       30.25R
CHADRON        CLOUDY    51  44  77 NE10      30.28R
KIMBALL        CLOUDY    42  41  95 NE6       30.26R FOG
SIDNEY         CLOUDY    47  41  80 E5        30.27R
$$

NEZ057>060-069>072-079>082-271700-
SOUTHWEST NEBRASKA

CITY           SKY/WX    TMP DP  RH WIND       PRES   REMARKS
NORTH PLATTE   MOSUNNY   56  34  43 NE5       30.24
IMPERIAL       PTSUNNY   52  34  50 E7        30.25R
MCCOOK         CLOUDY    56  33  42 NE13      30.23R
$$

NEZ005>010-023>029-035>040-094-271700-
NORTH CENTRAL NEBRASKA

CITY           SKY/WX    TMP DP  RH WIND       PRES   REMARKS
VALENTINE      SUNNY     61  33  35 NW5       30.24S
AINSWORTH      SUNNY     59  36  41 N8        30.23F
BROKEN BOW     MOSUNNY   59  35  40 NE10      30.22R
ORD            MOSUNNY   61  35  37 N10       30.20F
$$

NEZ041-046>049-061>064-073>077-083>087-271700-
SOUTH CENTRAL NEBRASKA

CITY           SKY/WX    TMP DP  RH WIND       PRES   REMARKS
GRAND ISLAND   PTSUNNY   57  35  43 E8        30.22R
AURORA         PTSUNNY   58  36  44 E9        30.21R
HASTINGS       PTSUNNY   55  36  48 NE10      30.21R
KEARNEY *      PTSUNNY   55  36  47 NE7       30.22S
$$

NEZ011>018-030>034-042>045-271700-
NORTHEAST NEBRASKA

CITY           SKY/WX    TMP DP  RH WIND       PRES   REMARKS
NORFOLK        SUNNY     61  32  33 E3        30.22S
ALBION         SUNNY     59  35  39 NE5       30.21S
BLAIR          SUNNY     58  28  31 NE6       30.21S
COLUMBUS *     SUNNY     61  34  36 E7        30.23S
TEKAMAH        SUNNY     62  30  29 N9        30.21F
$$

NEZ050>053-065>068-078-088>093-271700-
SOUTHEAST NEBRASKA

CITY           SKY/WX    TMP DP  RH WIND       PRES   REMARKS
LINCOLN        MOSUNNY   60  32  34 NE12      30.22R
OMAHA EPPLEY   MOSUNNY   59  38  45 N7        30.21F
BEATRICE       PTSUNNY   56  34  44 E10       30.20S
FALLS CITY     PTSUNNY   58  38  47 CALM      30.19S
NEBRASKA CITY  PTSUNNY   58  32  36 N8        30.20S
PLATTSMOUTH    MOSUNNY   59  28  30 NE8       30.21S
$$

NEZ044-045-051>053-067-271700-
OMAHA AREA

CITY           SKY/WX    TMP DP  RH WIND       PRES   REMARKS
OMAHA EPPLEY   MOSUNNY   59  38  45 N7        30.21F
BLAIR          SUNNY     58  28  31 NE6       30.21S
OFFUTT AFB     SUNNY     59  35  40 NE7       30.20F
PLATTSMOUTH    MOSUNNY   59  28  30 NE8       30.21S
WAHOO          FAIR      59  27  29 NE9G16    30.21S
$$



USA.gov is the U.S. government's official web portal to all federal, state and local government web resources and services.